sat.trackr.live / text

‹ back to catalog

STARLINK-35014

NORAD 65429 · 2025-192AB

PAYLOAD ACTIVE UNKNOWN

§ Identity

Operator
Country
US
Launch date
2025-08-31
Launch site
AFETR
Launch vehicle
Mass (kg)
RCS (m²)

Purposes: comms

External: N2YO · Heavens-Above · Gunter

§ Orbital elements

Epoch: 2026-09-20T22:06:06.624000Z

Period
93.85 min
Inclination
53.1595°
Eccentricity
0.0001081
Mean motion
15.34417493 rev/d
Perigee alt
461.9 km
Apogee alt
463.4 km
Semi-major
6,840.8 km
B*
3.5069e-4
RAAN
43.4852°
Arg perigee
82.4205°
Mean anomaly
277.6921°
Rev number
5,930

§ Raw data

STARLINK-350141 65429U 25192AB  26263.92091000  .00011497  00000+0  35069-3 0  99922 65429  53.1595  43.4852 0001081  82.4205 277.6921 15.34417493 59305

JSON: /api/v1/satellites/65429 · /tle

For live sub-satellite position, see the globe view (requires WebGL).

§ Visibility from observer

Set your observer location to see the next 7 days of passes ≥ 10°. The values pass through the URL so the page stays shareable.

No JS? Fill the form by hand. The geolocation button needs JavaScript.